Theta_e
325 325 326 325 325 325 324 324 324 323 321 319 319 320 319 317 316 316 314 313 311 310 308 307 307 306 306 306 306 305 304 302 300 298 296 297 297 297 297 297 297 297 296 296 296 296 296 296 296 296 296 295 296 295 296 296 297 297 298 298 299 299 298 298 297 297 297 299 300 300 300 300 300 300
324 323 323 321 321 321 320 320 321 319 315 312 313 316 316 316 315 315 314 314 313 311 309 308 307 305 305 306 305 304 303 301 299 297 297 297 297 297 297 297 297 296 297 297 297 297 296 296 296 296 296 296 296 296 297 298 298 298 298 299 299 299 299 298 297 297 297 298 300 300 300 300 300 300
324 323 321 318 317 317 316 315 314 311 308 306 308 311 313 315 315 314 315 315 315 313 310 308 306 305 305 305 304 303 301 299 297 296 297 298 297 297 298 297 297 297 297 297 297 297 296 296 296 296 296 296 297 297 298 298 298 299 299 298 299 299 299 298 298 297 297 297 298 299 300 301 300 300
324 322 318 316 314 313 312 310 307 305 304 302 305 307 309 310 309 310 313 314 314 313 310 307 305 304 304 303 303 302 301 299 298 297 298 298 297 299 300 300 298 297 297 297 297 297 297 297 297 297 297 298 298 298 298 298 298 298 299 299 299 299 299 298 298 298 297 296 296 297 299 301 301 301
322 318 313 311 310 308 307 306 302 302 301 300 301 303 303 304 303 305 310 313 314 313 309 306 304 303 303 302 301 300 300 299 298 299 299 298 298 299 300 302 301 298 298 298 297 298 298 298 298 298 298 298 299 299 299 299 299 298 299 299 299 299 299 299 299 298 298 297 296 296 297 300 301 301
320 314 309 307 305 304 303 302 300 300 300 299 300 300 300 303 303 304 308 311 313 311 306 304 304 301 301 302 301 299 298 298 297 299 300 299 299 299 299 302 303 299 297 298 298 298 298 298 299 299 299 298 298 299 299 299 299 299 299 299 299 299 299 299 299 299 298 297 296 295 296 299 301 301
316 310 306 304 302 301 301 300 300 300 299 299 300 300 300 303 304 305 308 311 312 309 304 302 303 301 298 300 301 299 298 297 297 299 301 300 300 300 300 302 303 300 298 299 299 299 299 299 299 299 298 299 298 299 299 299 299 299 299 299 299 299 299 299 299 299 298 297 296 295 295 298 300 301
312 307 303 301 301 300 300 300 300 299 300 299 299 299 299 300 301 302 304 308 310 308 303 301 303 302 299 299 301 300 300 299 298 299 301 302 302 302 301 302 302 300 299 299 299 299 299 299 299 299 299 299 299 299 299 299 299 299 299 299 299 299 299 299 299 299 298 297 296 295 295 297 299 301
309 304 302 301 300 300 300 300 299 299 299 299 298 298 299 299 299 298 300 304 306 306 304 301 301 301 300 300 301 300 300 301 301 301 302 302 303 303 302 303 302 299 299 299 299 299 299 299 299 299 299 299 299 299 299 299 299 299 299 299 299 299 299 299 299 299 299 298 296 296 295 296 298 300
306 302 301 300 300 300 300 300 299 299 299 299 298 298 298 298 299 298 299 301 302 304 304 301 299 299 300 301 301 301 299 299 300 302 303 303 303 303 303 304 303 301 299 299 299 298 298 299 298 298 299 299 299 299 299 299 299 299 299 299 299 299 299 299 300 299 298 298 297 296 295 296 297 299
303 301 300 300 300 299 299 299 299 299 298 299 298 298 298 299 299 299 299 300 301 303 304 302 300 301 300 300 303 303 299 297 299 301 302 304 304 304 303 303 304 303 301 300 300 299 299 298 298 299 300 301 300 298 299 300 300 300 299 299 299 299 299 299 299 299 298 298 297 296 295 295 297 298
302 301 300 300 300 299 299 299 298 298 298 298 298 298 298 299 298 299 300 301 302 303 302 302 303 303 302 301 302 302 300 300 304 304 301 302 304 304 303 304 304 302 300 300 300 300 301 300 300 301 302 302 300 300 301 302 301 300 299 299 299 299 299 299 299 299 298 298 297 296 295 296 297 298
301 300 300 300 300 299 299 299 298 298 298 298 298 298 298 298 298 299 300 302 302 302 302 303 304 303 304 303 303 303 303 304 305 303 301 303 305 304 304 305 305 303 301 299 299 301 302 302 302 302 302 302 301 302 303 302 300 299 299 299 299 299 299 299 299 299 299 297 297 296 296 297 298 298
301 300 300 300 299 299 299 299 298 298 298 298 298 298 298 297 297 299 300 301 302 302 303 304 304 303 304 304 303 304 304 303 301 301 303 304 304 304 304 304 304 304 303 300 300 301 302 303 303 303 302 302 302 302 301 300 298 299 299 300 299 299 299 299 299 299 298 297 296 296 296 298 298 298
301 300 300 299 299 299 299 299 298 298 298 299 298 298 297 297 297 297 298 299 300 300 303 305 304 304 305 304 303 303 303 302 302 303 303 304 304 304 304 304 304 304 303 301 301 302 302 302 303 302 302 302 302 301 301 299 298 298 299 299 299 299 299 299 299 299 298 297 296 296 297 299 299 298
300 300 300 299 299 299 299 299 299 298 298 298 298 298 297 297 297 297 297 298 297 298 303 305 304 303 305 304 303 303 304 303 303 303 303 304 305 304 304 304 304 303 302 302 302 302 302 302 302 302 302 303 302 301 301 299 298 298 299 299 299 299 299 299 299 298 297 297 296 297 298 299 299 298
300 300 299 299 299 299 299 299 298 298 298 298 298 297 297 297 297 297 297 297 297 297 302 305 304 303 303 304 304 303 302 300 301 304 304 305 305 304 304 303 302 302 303 304 303 302 302 302 302 302 302 302 302 301 300 300 299 299 298 298 298 299 299 299 299 298 297 296 296 297 298 299 299 298
300 300 299 299 299 299 299 299 298 298 298 298 297 297 297 297 297 297 296 297 297 297 299 302 303 302 300 302 304 303 298 296 300 303 304 304 303 303 302 302 303 303 304 305 304 303 302 302 301 302 302 302 302 301 301 301 300 299 298 298 299 299 299 300 299 298 297 297 296 297 298 299 299 298
300 299 300 299 299 299 299 298 298 298 298 298 297 297 297 297 296 296 297 296 297 297 297 298 301 301 299 299 302 301 298 297 298 300 300 300 300 301 302 303 304 304 303 304 305 304 302 301 301 302 301 301 301 301 301 301 301 300 299 300 300 300 300 300 299 298 298 297 297 297 297 298 298 298
300 299 299 299 299 298 298 299 299 298 298 297 297 297 296 296 296 296 296 296 296 297 297 297 299 300 298 298 298 298 297 297 297 298 299 301 302 304 304 304 304 303 302 303 304 304 302 301 301 301 301 301 301 301 302 302 301 301 301 302 302 301 301 301 300 300 299 298 298 297 297 298 298 298
299 299 299 299 298 298 299 300 300 298 297 297 297 297 296 296 296 296 296 296 296 296 297 297 297 298 297 297 297 296 296 296 296 297 300 302 304 304 304 303 303 302 302 303 304 302 301 301 301 301 301 301 301 301 302 301 301 302 302 302 302 302 301 301 301 300 300 299 299 298 297 298 298 298
299 299 299 298 298 299 301 302 300 298 297 297 296 297 296 296 296 296 296 296 296 296 296 296 297 297 297 297 297 296 296 296 296 297 298 301 303 303 303 303 302 302 303 304 303 302 301 301 301 301 301 301 301 301 301 301 302 302 302 302 302 302 302 301 301 301 300 300 299 298 297 298 298 297
298 299 299 299 299 300 302 303 301 298 297 297 296 297 296 296 295 295 295 296 296 296 296 296 297 297 297 297 297 297 296 296 296 296 297 300 302 302 302 302 302 303 303 303 302 301 300 300 301 300 300 300 301 301 301 301 302 302 301 302 302 302 302 302 302 301 300 300 299 298 297 298 299 297
299 299 299 299 299 301 303 303 301 299 298 297 297 296 296 296 295 295 296 295 295 296 296 296 296 297 297 297 297 297 297 297 296 296 297 298 301 302 302 302 302 302 303 302 301 300 300 300 300 300 300 300 301 301 301 301 302 301 301 302 302 302 302 302 302 301 301 300 300 299 298 298 298 297
300 299 299 299 299 301 303 303 301 299 298 297 297 296 295 295 295 296 297 297 295 295 296 297 297 298 298 299 299 300 300 300 300 299 298 298 300 302 302 302 303 302 303 302 301 300 300 301 300 300 300 300 301 300 301 301 301 301 301 302 302 302 302 302 302 301 301 300 300 299 298 298 298 297
300 299 299 300 300 301 303 303 301 299 298 297 297 296 295 295 295 295 297 297 295 294 296 299 300 301 301 301 302 302 302 302 302 302 302 301 302 302 302 302 302 302 302 302 301 301 301 301 300 300 300 300 300 301 301 301 301 301 301 302 302 302 302 302 302 301 301 300 300 300 299 298 298 298
301 300 299 301 301 302 304 304 301 298 298 297 297 296 295 296 296 295 296 296 295 295 297 299 301 302 301 302 302 303 303 303 302 303 304 304 304 303 302 301 301 302 302 302 301 301 301 301 300 300 300 300 300 301 301 301 300 301 301 302 302 302 302 302 302 301 301 300 300 300 299 298 298 298
301 301 300 302 302 304 304 302 300 299 298 297 297 297 297 298 298 298 298 298 297 297 298 300 301 301 301 302 302 303 303 303 303 303 304 303 302 302 302 302 302 302 303 302 302 301 301 301 300 300 300 300 300 300 300 300 301 301 301 301 301 302 302 302 301 301 301 300 300 300 299 298 297 297
302 301 301 303 304 304 302 301 300 299 298 298 299 300 300 301 302 301 301 301 299 298 299 300 300 301 301 302 302 302 303 303 303 303 302 302 302 302 303 303 303 303 303 303 303 302 301 301 301 300 300 300 300 300 300 300 301 301 301 301 301 302 301 301 301 301 301 301 300 300 299 298 297 297
303 301 302 304 303 302 301 300 300 299 298 299 302 303 303 304 304 303 303 303 302 300 299 299 299 300 301 301 302 302 302 302 302 301 301 302 303 303 303 304 304 304 303 302 302 302 302 301 301 300 300 300 300 300 300 301 301 301 301 301 302 302 301 301 300 301 301 301 301 300 300 298 297 297
303 302 304 304 303 302 302 301 301 301 300 301 303 304 304 304 305 304 303 304 304 302 301 299 299 299 300 301 302 302 302 301 301 301 302 303 303 303 303 303 303 304 303 303 302 302 302 302 302 301 301 301 301 301 302 302 301 301 301 301 301 301 301 300 300 301 301 301 301 300 300 298 297 297
302 303 305 305 304 303 303 303 302 302 302 302 302 304 304 305 305 304 304 304 304 303 302 300 299 299 300 300 301 302 302 302 302 302 303 303 304 303 303 303 303 304 304 304 303 302 302 302 302 301 301 301 301 302 302 302 301 301 301 302 301 301 301 301 300 300 301 301 301 300 300 299 297 297
302 305 306 305 304 304 303 304 304 303 303 303 303 303 304 305 305 305 304 303 303 302 301 300 299 299 300 300 301 301 301 302 302 303 303 304 304 303 303 303 303 304 304 304 303 302 302 302 301 300 301 301 301 301 301 301 301 301 301 301 301 301 301 300 300 300 300 301 301 301 300 299 297 297
303 305 307 305 304 304 304 304 304 304 305 305 304 304 305 305 305 305 305 303 303 302 301 300 300 299 299 299 300 301 301 302 303 303 303 304 303 303 303 304 303 304 304 303 303 302 302 301 301 301 301 301 301 301 301 301 300 300 301 301 301 301 301 300 300 300 300 301 301 300 300 299 298 297
306 306 307 307 305 304 304 304 305 305 306 306 306 306 305 305 305 305 304 304 303 302 301 299 299 300 300 300 300 301 301 302 303 303 303 304 304 303 303 303 303 304 303 303 302 302 301 301 301 301 301 301 301 301 301 300 299 300 301 300 300 301 300 299 300 300 300 300 300 300 300 299 298 297
310 308 308 307 306 305 305 306 306 306 306 306 306 306 306 306 305 304 303 303 303 303 301 299 299 300 300 300 300 301 301 302 302 302 302 303 303 304 303 303 303 303 303 303 302 301 301 301 301 301 301 301 301 301 300 300 299 300 300 300 300 300 299 299 299 299 299 300 300 300 300 299 298 297
312 310 309 308 307 307 307 307 307 307 307 307 306 306 306 306 305 304 303 302 301 302 302 301 301 301 300 300 300 300 300 300 301 301 302 302 302 303 303 303 303 303 302 302 302 301 301 301 301 301 301 301 300 300 300 299 299 300 300 300 299 299 299 299 298 298 298 299 299 299 299 299 298 297
313 311 309 308 308 308 308 308 308 307 307 307 306 306 306 306 306 305 304 302 301 301 302 303 302 301 301 301 301 300 298 298 299 300 302 302 302 303 303 303 303 303 302 302 302 301 301 301 301 301 300 300 300 300 299 299 300 300 300 300 299 299 299 298 298 298 298 298 298 298 298 298 298 297
314 313 310 309 308 309 309 308 308 308 307 307 306 306 306 306 306 306 305 304 302 302 303 303 302 301 301 301 301 300 298 298 298 300 301 302 302 302 303 303 303 303 302 302 302 301 300 301 301 301 300 300 299 299 299 299 300 300 300 300 299 298 298 298 297 297 298 298 298 297 298 298 298 296
314 312 310 309 309 309 309 309 309 308 308 306 306 306 306 306 306 306 305 305 303 303 303 302 300 301 301 301 301 301 300 299 299 299 299 301 302 303 303 303 303 302 302 302 301 300 300 301 301 300 299 299 298 298 299 300 300 300 300 300 300 298 298 298 297 297 298 298 297 297 297 297 297 296
313 311 310 309 309 309 309 309 309 308 307 306 306 306 306 306 306 306 305 305 304 303 301 299 299 300 301 301 302 301 300 299 299 298 298 299 301 302 303 303 302 302 302 301 301 300 300 301 301 299 299 299 299 299 300 300 300 300 300 300 300 299 298 297 297 298 298 297 297 297 296 296 297 296
313 312 311 310 310 309 309 309 308 308 307 306 306 306 306 306 305 305 304 304 304 303 300 298 298 300 301 301 301 301 300 299 298 297 297 299 301 302 302 302 302 302 302 301 301 301 300 301 301 300 300 300 300 300 300 299 299 300 300 300 300 299 299 298 298 298 298 298 297 297 296 296 296 296
314 313 312 311 310 309 309 308 308 307 306 306 306 306 306 305 304 304 303 303 302 301 298 297 298 300 301 301 301 301 300 299 297 296 295 297 299 301 302 302 302 302 302 301 301 301 300 300 301 301 300 300 300 299 299 299 299 299 300 300 299 299 299 299 298 298 299 298 297 296 296 295 295 295
315 314 313 312 311 310 309 308 307 305 305 306 306 306 306 305 304 303 302 300 299 298 296 296 298 301 301 301 301 301 300 299 298 296 295 296 298 301 302 302 302 302 302 301 301 300 300 300 300 300 300 300 300 299 299 299 299 299 300 300 300 300 299 298 299 299 299 298 297 296 296 295 295 295
315 314 313 311 310 309 308 307 306 306 306 306 306 306 305 304 303 301 299 297 296 295 294 295 297 300 301 301 301 300 299 298 297 295 295 297 299 301 302 302 303 302 301 301 300 300 301 300 300 300 300 300 300 300 299 299 299 300 300 300 300 300 299 298 299 299 300 299 297 296 295 295 295 295
Wind_Speed
13 13 13 13 13 13 13 14 16 16 17 16 14 13 14 13 11 10 11 12 11 12 12 9 10 14 15 16 17 15 15 18 17 16 17 15 16 18 17 18 17 16 16 17 17 17 17 17 16 16 16 17 18 19 19 21 22 24 26 28 30 32 34 36 38 39 40 40 41 41 38 34 33 32
15 15 16 16 17 17 16 18 20 19 19 18 16 15 13 13 13 11 10 10 10 11 12 9 9 13 14 14 16 14 14 17 16 15 15 14 15 16 15 15 16 16 16 16 17 17 17 16 16 16 17 17 18 18 19 21 23 25 26 28 30 33 35 37 38 39 40 41 42 42 40 37 36 33
15 16 17 17 19 19 18 19 20 18 18 18 17 16 14 13 14 12 10 9 10 10 11 11 12 14 14 14 14 13 13 16 15 13 13 13 14 14 14 15 15 15 15 16 16 16 16 15 16 16 16 17 17 18 19 21 23 25 27 29 31 34 35 37 38 39 41 42 42 43 43 42 41 37
16 16 17 18 19 19 18 19 18 17 18 17 16 16 15 16 17 15 11 9 9 11 12 12 13 14 13 12 11 9 11 14 15 12 11 13 13 11 10 14 16 15 15 15 15 15 15 15 15 15 16 16 17 18 20 22 24 26 28 30 32 34 35 37 38 40 41 42 43 44 44 43 42 39
16 16 17 18 19 18 18 18 16 16 16 16 16 16 16 16 16 15 12 9 10 13 14 13 12 12 10 10 9 8 9 12 12 9 10 12 11 7 5 8 14 15 14 13 14 13 13 14 14 15 16 17 18 19 21 23 25 27 29 31 33 34 36 37 39 41 42 43 43 44 44 44 42 39
16 17 18 19 19 18 18 17 16 16 16 15 15 15 15 14 14 14 13 10 10 12 14 12 11 10 8 7 9 11 10 10 9 6 8 9 8 7 5 3 9 13 12 12 13 13 13 14 15 16 17 18 18 20 22 24 26 28 30 31 33 34 36 38 40 41 42 43 44 44 44 43 41 38
17 17 19 19 19 18 17 17 16 16 16 15 15 15 14 13 13 13 12 10 9 10 11 10 9 10 7 6 8 11 11 9 7 4 6 8 7 6 6 4 6 11 12 11 11 13 13 14 15 16 17 18 20 21 23 25 27 29 30 31 33 35 37 39 40 42 43 44 45 45 46 44 42 38
17 18 19 19 18 18 17 17 16 16 16 15 15 15 13 12 12 12 12 10 8 9 9 7 8 8 8 6 7 8 9 9 8 5 4 6 5 6 6 5 6 9 11 10 10 12 13 14 15 17 18 20 21 22 24 26 27 29 30 32 35 37 38 39 41 42 43 44 45 46 47 46 44 39
18 19 19 19 18 18 18 17 17 16 16 16 16 14 13 13 12 11 12 11 9 8 8 8 8 8 7 6 6 6 6 6 7 6 5 5 4 6 7 6 8 10 12 12 13 13 15 16 17 18 19 20 22 24 25 26 27 29 31 33 36 38 39 40 41 42 43 44 46 47 48 48 46 42
19 20 20 20 19 19 18 18 18 18 17 17 16 15 16 15 13 11 12 12 10 9 8 9 9 8 8 7 6 7 6 5 5 5 6 5 5 6 6 7 9 11 12 14 15 16 16 17 18 19 20 21 24 25 25 26 28 31 32 34 36 38 40 40 41 42 43 44 46 47 48 49 48 45
21 21 22 21 21 20 19 19 19 18 17 17 16 16 16 14 12 12 13 11 10 9 9 8 8 8 8 7 5 7 8 6 4 4 5 5 6 7 7 7 8 9 11 14 16 18 18 18 20 21 21 22 25 26 27 27 29 32 32 33 36 38 40 41 41 41 43 44 45 47 49 50 50 47
22 23 23 23 22 21 21 20 20 19 18 17 17 16 15 13 13 14 13 11 11 10 9 8 7 7 7 6 6 7 7 5 3 5 5 5 6 8 9 8 8 9 12 14 15 17 18 19 19 19 18 20 23 26 26 25 27 30 31 32 35 38 40 41 41 41 42 44 45 47 49 51 51 48
24 24 24 24 24 24 23 22 21 19 18 17 16 16 15 15 15 15 14 12 11 10 9 8 8 7 6 6 6 6 5 3 5 7 7 7 7 9 10 9 10 12 15 18 19 17 17 18 18 16 16 19 22 23 22 22 25 29 30 32 35 38 40 41 40 41 42 43 45 48 51 52 51 48
25 25 25 25 25 25 24 22 21 19 18 17 17 16 16 16 17 17 16 14 12 11 9 9 8 7 7 7 6 6 6 6 6 6 6 7 8 9 10 10 10 12 17 21 21 18 17 18 18 17 18 19 20 21 22 23 27 29 30 32 35 38 40 40 40 41 41 43 46 49 51 52 50 47
25 26 26 26 26 25 24 23 21 20 18 17 17 17 18 18 18 18 17 16 14 12 9 9 9 7 7 8 7 6 6 6 5 5 5 7 8 9 10 11 10 11 17 21 21 19 18 18 18 19 19 19 20 22 25 27 28 28 29 31 34 37 39 40 40 40 40 43 46 49 51 51 49 46
26 26 27 27 26 26 25 23 21 20 18 18 17 17 19 20 20 19 19 17 16 13 9 9 9 8 7 8 8 6 6 6 5 5 5 6 8 9 10 12 12 13 17 18 19 20 19 18 19 21 20 19 22 25 27 28 28 29 30 31 34 36 38 39 39 39 40 43 46 49 51 52 49 46
27 27 27 28 27 26 25 22 21 20 19 19 19 18 19 20 20 19 19 17 15 13 11 10 9 9 8 7 7 8 9 7 5 5 5 6 8 9 11 13 14 16 16 16 18 20 19 18 21 21 20 20 23 25 26 26 27 31 31 31 33 36 38 39 38 38 40 44 47 49 52 53 51 47
28 28 28 28 28 26 24 23 22 21 20 20 20 18 19 20 19 19 18 17 15 14 13 11 10 10 10 8 8 11 11 8 6 5 6 7 8 11 12 13 15 16 14 15 18 20 19 20 22 22 21 22 24 25 26 25 27 31 31 30 33 37 38 39 38 38 41 44 46 49 51 53 52 48
28 28 29 28 27 25 24 24 23 21 21 21 20 19 19 19 19 19 18 18 16 15 14 12 11 12 12 10 10 11 10 8 7 8 8 8 10 12 13 14 14 13 13 14 16 18 20 22 22 23 23 24 24 25 25 25 27 31 31 31 34 37 39 40 39 38 41 43 45 48 50 52 53 49
29 29 29 28 27 25 25 24 22 21 21 21 20 19 19 19 20 19 19 18 17 16 15 14 13 13 12 10 10 10 9 8 9 8 8 9 10 11 13 14 12 12 14 13 12 17 22 22 22 24 25 24 25 25 23 25 29 31 30 31 34 36 38 40 38 38 40 41 44 47 49 52 53 47
30 30 29 28 27 27 25 24 22 21 21 21 20 20 20 20 20 20 19 18 17 17 16 14 14 13 12 11 10 9 9 9 8 7 7 8 9 10 12 13 13 14 15 12 11 17 23 22 22 25 26 24 24 24 23 27 30 29 28 29 31 33 37 38 37 36 38 39 42 45 47 52 52 43
30 30 29 28 28 27 26 23 22 22 22 22 22 21 21 21 21 20 19 18 18 18 16 15 14 14 13 12 10 10 9 9 9 8 8 8 8 10 12 13 14 15 12 12 15 20 22 22 22 24 25 25 23 22 25 28 28 26 26 28 29 31 35 36 34 34 36 38 39 42 47 52 50 40
31 31 29 29 28 28 26 23 22 23 23 23 23 22 21 22 21 20 19 18 18 17 16 15 15 14 14 12 11 11 11 10 10 9 9 9 9 11 12 12 14 14 12 14 20 21 21 22 22 22 24 26 24 23 26 28 26 25 26 28 28 30 33 33 31 32 35 36 37 39 46 53 51 40
32 31 30 29 29 28 25 23 23 24 23 23 22 22 21 22 21 20 19 19 18 17 16 16 15 14 14 14 13 12 12 11 11 10 10 10 10 12 13 12 13 14 13 15 20 21 20 21 21 21 23 24 25 27 28 27 26 26 27 28 28 30 32 31 30 31 33 34 34 37 45 53 52 41
33 32 30 30 30 28 25 23 23 23 22 22 22 21 21 22 21 19 18 18 18 17 16 16 15 15 14 14 13 13 12 12 12 11 10 11 11 12 13 13 14 15 14 17 21 21 19 19 21 22 22 22 24 28 28 26 25 26 27 27 29 31 31 30 29 31 33 34 34 37 44 53 52 42
32 31 31 30 29 27 24 23 23 22 21 21 21 21 21 21 20 19 18 18 18 18 16 15 14 14 14 14 13 13 12 12 13 12 11 11 12 13 14 14 15 16 16 19 21 20 18 19 20 21 22 23 24 26 26 26 26 27 27 27 29 30 30 29 30 31 32 34 35 35 41 51 55 46
30 30 30 28 25 23 22 22 22 22 21 21 21 21 21 19 18 18 18 17 17 17 16 15 14 14 14 13 13 13 12 11 12 12 12 11 12 14 15 15 16 17 18 19 18 17 17 19 19 20 21 23 24 25 25 26 27 27 27 28 29 29 29 30 31 32 32 33 34 34 38 48 57 52
29 29 27 24 21 21 21 21 21 21 21 21 21 20 19 18 18 18 17 15 15 16 15 15 15 15 14 13 13 12 12 11 11 13 13 14 14 15 16 16 17 17 18 19 17 15 16 18 18 20 21 22 22 23 24 26 27 26 28 29 29 29 29 30 32 32 32 33 34 35 38 47 56 56
28 26 22 20 19 19 20 20 20 21 21 20 20 19 18 18 18 17 16 14 14 15 15 15 16 15 14 14 13 12 12 13 14 15 15 14 14 14 15 16 17 16 16 18 18 16 16 17 18 20 21 20 20 21 23 25 25 26 27 29 30 28 29 31 33 33 33 33 34 35 38 45 53 55
24 22 20 18 18 18 19 20 20 21 20 20 21 21 20 19 19 18 17 15 14 15 15 15 15 14 13 13 12 13 14 15 15 14 13 12 13 13 14 15 16 15 15 16 16 15 15 16 17 18 20 20 20 20 21 23 24 25 27 28 29 29 30 32 34 34 33 33 34 35 35 41 50 53
23 22 20 18 18 17 18 19 20 19 19 21 23 23 23 22 22 21 19 17 16 16 16 15 14 14 13 12 12 13 14 15 13 12 12 12 13 12 13 14 15 15 15 14 14 14 15 15 15 16 19 21 21 23 22 20 22 26 26 26 27 28 29 32 35 36 35 33 33 34 34 37 46 53
26 25 22 19 19 19 20 22 22 21 22 23 24 25 24 24 24 23 21 20 19 17 16 15 14 13 13 13 13 13 13 13 12 11 11 12 12 12 12 14 15 15 15 13 13 13 13 13 14 16 18 20 22 24 21 18 20 24 25 26 27 26 28 31 34 36 36 32 32 34 33 34 43 51
30 27 24 23 23 24 24 25 25 25 24 24 25 26 26 24 23 23 24 24 23 21 18 16 15 14 13 13 13 13 13 13 12 11 11 11 12 11 12 13 15 15 15 14 14 13 12 12 14 16 17 17 19 20 17 16 19 24 24 25 26 26 28 32 34 35 35 32 31 32 32 33 40 48
31 29 27 27 27 27 27 28 27 26 24 22 23 24 26 25 23 22 24 24 23 22 21 18 17 15 15 14 13 13 13 13 12 11 11 11 11 12 12 13 14 13 13 14 14 14 14 14 15 16 15 15 15 15 15 17 21 24 25 26 26 26 29 33 34 34 33 31 30 30 30 31 35 43
33 32 31 29 29 28 28 28 28 25 23 22 21 22 24 26 25 24 24 23 22 21 21 20 18 16 14 14 13 13 13 13 12 11 11 10 11 11 12 13 13 13 13 14 14 14 14 14 16 16 16 16 16 16 17 21 23 24 26 28 27 27 31 33 32 32 32 31 29 28 29 31 34 39
34 34 34 31 29 28 27 27 26 24 22 22 22 22 23 25 26 27 26 24 23 21 20 20 19 17 16 15 14 13 14 15 14 13 11 11 11 11 11 13 13 13 13 13 13 13 13 13 14 16 16 17 18 17 18 22 25 24 25 28 30 30 32 33 32 31 32 32 30 28 27 30 33 37
33 34 35 31 28 26 26 25 24 23 23 21 21 22 23 23 24 26 27 26 25 23 20 19 19 19 18 16 16 17 18 19 18 16 13 12 12 12 12 13 12 13 13 13 12 12 12 12 12 14 15 17 18 18 19 22 23 23 25 28 31 32 33 34 33 33 35 34 31 27 25 26 31 35
33 35 35 32 27 25 24 23 22 23 23 22 21 22 22 22 22 23 24 27 27 24 21 20 20 19 19 18 19 21 21 19 18 16 14 13 13 12 12 13 12 12 12 12 11 11 12 11 11 12 13 15 17 19 20 21 20 21 23 27 31 32 32 34 34 34 37 37 33 27 23 22 27 34
33 35 36 32 26 23 23 22 22 23 23 22 22 22 21 22 23 22 22 25 27 24 22 22 22 22 22 22 23 22 20 18 16 15 14 14 13 13 13 13 13 12 12 11 11 11 11 11 10 10 12 14 16 17 18 19 19 19 21 25 29 31 31 32 33 33 36 38 35 30 24 20 24 34
35 36 36 32 26 23 22 22 23 24 23 22 22 22 21 22 23 22 21 21 23 24 25 25 25 25 25 25 25 23 20 17 16 17 17 15 13 13 13 12 12 12 11 11 11 12 11 10 9 10 12 15 16 16 16 17 17 16 17 21 27 31 30 30 31 31 34 37 35 31 27 22 22 33
38 36 35 32 28 25 24 23 23 23 22 22 21 21 21 21 21 22 21 20 20 24 27 28 27 26 26 25 25 23 20 17 16 17 18 17 15 14 15 14 13 12 11 11 11 11 10 10 11 12 13 15 15 15 15 15 16 16 16 18 24 29 29 28 28 28 31 35 34 31 29 24 22 29
39 37 35 32 30 28 26 24 23 22 22 22 21 20 20 21 20 22 22 21 22 26 29 28 27 27 26 25 24 22 21 20 19 19 17 16 14 15 15 15 14 12 11 11 11 10 9 10 11 12 13 14 14 13 14 15 16 16 15 17 23 26 25 25 26 25 27 32 34 31 29 27 24 28
39 38 34 31 31 30 26 24 25 26 25 24 22 21 20 21 22 23 24 24 26 29 29 27 27 27 26 23 22 21 21 21 22 22 20 18 17 15 14 13 13 12 11 11 11 10 10 10 10 11 12 13 13 13 14 15 15 15 15 18 24 25 20 20 23 22 22 29 32 28 26 25 25 25
38 37 34 32 33 32 27 24 26 27 24 22 22 22 21 22 23 25 27 28 29 30 29 27 27 26 23 21 21 20 20 20 20 21 21 19 19 18 16 14 13 11 11 10 10 10 10 9 10 11 12 13 13 13 13 14 15 15 14 17 22 22 18 19 21 19 18 24 28 26 23 22 22 22
33 31 31 31 31 30 27 25 25 24 22 21 21 22 23 24 25 27 29 29 30 29 29 29 29 27 23 22 21 21 21 20 21 22 20 18 18 17 16 15 14 12 11 11 10 10 10 9 10 11 12 13 14 14 13 13 14 15 14 15 17 19 18 19 19 16 14 17 22 24 21 18 19 20
Wind_Direction
232 232 233 233 229 229 229 226 224 225 227 225 223 222 221 226 228 223 222 221 216 208 207 220 249 258 266 275 282 288 288 296 309 316 319 325 327 331 333 332 337 346 348 345 344 345 345 345 346 347 349 351 350 351 353 354 354 353 351 349 348 347 348 348 348 347 346 344 342 339 334 328 323 318
237 237 240 237 231 231 231 227 226 228 230 227 223 221 221 226 230 232 239 231 208 208 217 212 234 261 269 275 283 286 288 299 310 316 321 326 326 329 331 332 338 345 348 345 344 346 347 347 347 349 350 350 351 353 356 356 354 352 350 348 348 348 348 348 346 346 346 345 344 342 338 332 327 323
239 238 240 236 233 234 231 229 230 230 230 227 222 222 221 222 225 227 240 238 208 206 221 216 224 252 267 273 282 288 291 300 313 323 324 322 326 332 333 334 340 348 350 348 347 348 351 351 351 353 354 353 355 357 357 356 354 352 350 348 349 348 347 346 345 346 346 346 345 344 342 338 334 330
238 237 236 232 231 230 228 229 230 227 226 223 220 222 222 224 225 222 228 236 218 212 224 233 241 254 264 271 278 284 289 301 317 328 321 319 331 342 334 325 333 350 356 349 351 355 356 358 359 359 0 358 359 359 357 356 355 352 351 350 349 347 345 344 344 345 346 345 345 345 343 340 336 333
233 230 227 226 226 224 223 225 223 220 220 220 220 223 223 226 228 222 220 223 225 232 238 245 253 257 261 269 271 268 278 296 313 322 315 319 332 342 338 315 319 341 357 351 355 2 0 4 5 3 3 0 359 359 357 357 355 354 353 351 348 346 344 344 344 345 345 345 345 344 343 341 336 332
229 225 221 222 223 219 217 215 213 214 217 218 221 223 221 223 225 219 214 212 220 237 243 243 249 257 253 254 272 283 288 294 305 312 308 315 323 327 345 321 305 330 354 355 355 1 2 5 5 3 2 360 358 358 357 357 356 355 353 350 348 346 345 345 344 344 344 344 345 345 344 342 337 331
225 220 218 220 218 213 210 208 210 213 214 215 218 219 216 218 220 212 208 210 209 220 235 234 239 257 258 237 259 286 296 298 309 314 293 305 318 320 334 332 306 328 349 354 355 358 358 1 0 0 0 359 358 357 355 356 355 354 352 350 348 347 347 346 344 344 344 344 345 345 345 343 340 333
220 217 216 216 212 208 206 207 210 213 214 215 216 216 216 213 213 209 205 208 203 204 218 213 210 243 268 256 251 277 295 303 316 319 285 297 311 309 315 315 306 322 335 343 352 356 354 356 357 357 356 356 356 354 353 353 352 351 350 350 350 349 348 346 344 343 344 344 345 345 345 344 341 336
216 214 214 212 207 205 206 207 210 212 212 214 213 211 208 204 208 212 208 204 198 196 203 204 211 235 257 258 252 261 275 291 305 308 297 290 289 297 308 308 306 319 331 337 343 348 351 354 355 353 353 354 355 353 350 349 349 349 350 350 350 349 348 346 345 344 343 344 345 345 344 343 341 338
212 212 211 208 205 205 208 208 209 211 211 212 211 208 206 206 209 212 209 205 199 194 198 215 236 247 245 246 255 262 265 265 267 279 292 293 288 297 307 305 306 319 332 337 340 343 346 349 349 348 350 351 352 350 347 346 348 349 349 349 349 348 347 346 345 344 343 343 344 344 343 342 340 338
211 210 208 207 205 205 207 208 209 210 209 210 210 210 212 213 207 203 204 204 199 195 200 219 237 242 244 243 239 255 277 292 284 279 292 293 290 298 306 306 306 315 328 335 337 337 340 344 345 347 349 346 344 345 346 347 346 346 346 347 347 347 347 345 344 344 343 343 343 342 341 340 338 336
210 209 208 207 205 205 207 207 207 208 208 209 211 212 212 210 204 201 202 201 199 201 205 211 214 220 239 245 231 248 281 306 287 277 288 291 293 302 308 306 302 310 328 337 336 333 334 337 340 343 343 336 336 342 345 343 339 340 343 344 346 347 347 345 344 343 343 343 342 341 340 339 336 334
209 210 209 206 205 207 208 207 208 209 209 208 212 213 210 206 203 200 200 199 200 205 206 206 210 212 221 230 232 240 255 255 252 268 291 301 299 303 307 305 298 302 320 335 340 337 331 329 331 334 332 331 335 339 338 334 332 336 342 344 346 347 347 345 344 343 343 343 342 341 340 339 336 333
209 210 210 208 209 210 209 209 209 210 210 210 212 212 207 204 203 203 204 203 200 202 204 207 214 215 213 220 228 230 234 246 258 271 289 299 302 308 311 312 307 304 317 331 336 335 330 326 325 327 326 328 334 334 332 333 335 338 342 344 346 347 347 346 345 344 344 343 342 341 341 340 338 335
211 210 211 212 212 210 210 211 211 211 212 213 215 211 204 202 204 206 207 208 207 207 205 208 214 215 215 223 229 232 239 253 266 273 283 291 302 310 312 316 318 312 318 328 329 327 327 326 322 321 323 324 327 330 332 334 338 340 342 344 346 347 347 347 345 345 345 345 344 343 343 343 341 338
213 212 213 214 213 212 213 214 213 213 213 214 214 211 207 205 206 208 210 212 215 212 205 210 219 216 214 227 232 227 227 240 256 268 277 285 297 307 310 312 312 310 314 321 325 323 325 326 321 320 321 320 322 328 330 331 336 342 343 343 346 348 348 348 348 348 348 348 346 345 345 345 343 339
213 213 215 215 215 215 216 215 214 214 213 214 213 210 210 210 211 214 216 217 220 216 209 212 220 220 217 222 229 231 235 240 247 262 278 286 292 300 304 304 308 312 312 311 316 320 323 325 322 320 321 320 321 325 327 330 336 340 341 342 346 349 350 349 350 351 351 350 348 347 346 345 343 340
214 215 216 217 217 217 216 214 215 214 213 215 214 212 212 213 215 218 219 219 221 221 219 216 219 230 231 216 218 240 255 258 246 248 265 275 283 294 305 314 317 318 313 304 306 314 321 325 323 320 322 323 320 322 327 332 333 334 338 344 348 350 350 349 350 352 353 351 349 347 345 343 342 340
215 215 216 217 217 218 217 217 217 216 215 215 214 214 214 214 217 220 220 220 221 222 225 222 219 233 241 228 224 243 261 262 251 254 267 283 298 306 314 320 317 312 311 306 301 308 319 325 324 320 322 324 322 323 328 330 329 331 337 343 344 346 346 346 347 350 351 350 347 345 344 342 340 339
213 215 216 215 215 217 218 219 219 217 216 216 216 216 215 214 217 221 222 222 223 225 228 227 226 238 249 246 241 249 257 257 257 268 283 298 308 307 307 312 310 309 316 312 299 309 320 325 324 321 322 324 323 324 327 327 328 332 335 336 337 339 341 342 344 347 348 347 344 343 342 340 339 340
212 214 214 213 214 216 218 220 219 216 216 216 217 217 216 215 218 222 224 224 225 228 232 234 239 246 252 253 253 257 260 259 260 267 276 290 300 299 302 309 311 315 319 309 299 315 322 323 324 323 323 325 324 324 326 328 330 333 334 334 335 335 338 340 342 344 344 343 342 342 341 340 341 342
211 213 212 211 213 216 219 220 217 215 214 214 217 218 217 218 220 222 226 226 226 230 234 237 242 246 249 253 257 260 260 260 260 260 263 274 290 296 300 307 310 314 319 307 305 318 323 322 325 326 324 325 326 326 328 330 332 334 335 335 335 335 337 341 342 343 343 342 341 341 343 344 345 344
211 213 212 211 213 216 220 221 217 216 214 214 218 218 217 220 222 223 228 230 230 233 236 239 244 248 250 253 256 259 259 257 257 258 259 266 279 288 296 304 307 313 318 309 310 321 324 322 325 328 326 325 325 328 330 331 333 335 335 336 337 337 339 341 343 344 344 343 341 341 346 351 350 346
211 213 212 211 214 217 220 220 218 218 217 216 219 219 218 221 222 223 229 232 232 234 237 240 245 249 250 252 255 258 260 261 261 261 259 260 265 277 290 298 300 306 311 306 308 318 321 319 322 327 326 324 323 327 331 333 334 336 337 338 339 340 341 342 344 344 345 346 341 336 343 352 353 349
212 213 213 213 215 218 220 220 219 219 218 217 219 218 217 221 222 222 226 230 230 230 232 237 242 245 246 248 250 252 256 261 264 266 265 262 260 268 281 290 294 300 303 302 307 316 318 317 321 324 324 324 324 326 330 333 335 337 338 340 342 342 342 341 342 343 345 347 344 335 340 351 355 353
213 214 215 216 218 220 222 221 219 217 217 215 216 216 216 220 223 221 221 226 228 228 228 231 234 237 237 238 241 243 244 247 251 255 260 261 261 266 273 279 285 293 298 301 307 312 312 313 319 322 323 325 325 326 330 332 335 338 340 343 344 343 343 342 341 342 344 346 346 341 341 350 355 356
213 216 218 220 222 224 225 223 218 216 215 212 212 215 217 219 222 221 221 226 229 227 227 227 228 232 233 232 236 239 239 243 246 245 248 252 259 269 275 277 282 288 294 298 302 304 305 308 316 320 322 323 325 328 332 333 335 340 343 344 344 344 346 345 342 342 343 345 347 345 342 347 353 356
215 220 222 222 223 226 225 221 218 217 215 212 211 215 217 217 219 221 223 227 227 224 224 225 227 231 232 231 233 235 237 242 242 238 244 254 265 273 276 277 283 289 295 301 303 303 304 306 311 318 322 324 326 330 334 335 336 341 345 345 345 346 347 347 345 343 345 347 349 348 346 347 351 355
218 223 222 219 221 223 219 217 218 216 214 211 210 213 215 213 217 222 222 223 226 225 224 226 229 232 233 234 236 235 235 238 240 243 252 263 273 278 277 280 288 295 301 305 303 302 303 303 307 316 321 323 327 331 334 335 338 343 346 345 344 346 348 349 348 346 347 350 351 351 351 350 350 355
218 217 213 209 211 212 211 214 216 214 211 209 209 212 213 213 218 224 225 224 227 228 227 228 231 233 235 238 238 236 239 243 246 250 258 266 274 279 279 282 288 293 299 300 296 292 295 297 303 313 317 320 328 334 334 334 338 343 345 345 344 345 348 350 350 349 348 350 352 354 354 351 351 355
208 204 202 199 200 203 207 212 215 215 213 212 213 215 216 216 219 225 229 228 228 229 229 230 232 235 235 235 235 238 245 250 250 250 256 265 273 279 280 282 287 292 297 299 295 292 293 295 301 311 313 314 322 331 332 332 337 341 344 345 345 345 347 349 352 352 350 349 351 355 356 353 353 356
199 197 196 195 195 198 203 207 210 213 215 217 219 221 222 222 223 227 230 229 228 228 230 230 231 233 233 232 234 239 244 248 248 249 256 265 271 276 279 281 288 295 299 300 300 299 298 298 303 312 313 311 315 324 328 329 336 341 343 343 344 346 346 348 352 353 351 349 350 355 360 357 354 357
197 195 194 197 199 201 203 205 208 211 215 219 223 224 225 225 225 227 231 233 232 232 231 230 229 229 233 236 239 241 243 243 246 251 257 263 269 272 276 281 287 293 298 302 306 306 304 304 307 312 315 316 318 324 329 332 337 341 344 345 345 346 347 350 353 354 352 349 347 352 359 359 354 357
199 196 197 202 206 206 206 207 208 209 212 216 219 222 225 224 220 222 228 233 235 234 232 230 229 230 234 238 237 238 239 241 245 252 257 261 265 268 274 281 286 290 296 301 305 307 307 310 316 318 320 324 327 326 329 337 339 340 344 348 347 345 347 351 354 354 352 351 349 349 355 0 357 357
201 199 202 206 209 209 209 210 210 209 210 212 213 217 221 221 219 220 225 228 229 230 231 230 228 228 231 235 235 237 240 241 243 249 255 260 264 266 272 280 285 290 296 299 302 307 309 313 321 324 324 329 335 332 332 338 340 339 344 350 350 348 350 353 355 354 353 354 354 351 354 1 2 359
203 203 206 208 209 210 210 210 210 209 210 212 213 213 216 219 220 223 227 228 225 225 228 230 229 228 230 234 236 236 238 238 239 244 253 260 262 265 270 278 283 288 295 297 299 304 308 311 319 326 328 331 334 334 333 337 338 338 343 348 350 352 353 354 355 356 358 359 359 357 356 1 3 1
206 206 208 210 210 211 211 211 210 211 212 215 216 216 217 220 223 226 229 231 229 226 226 228 230 232 235 238 239 238 238 241 244 248 253 257 261 265 269 274 280 287 292 296 298 302 306 308 316 325 329 330 331 332 334 336 337 338 343 348 350 352 355 356 356 359 3 5 3 0 359 2 5 5
211 211 211 211 212 212 212 212 212 213 215 216 218 219 219 222 225 225 227 230 232 231 227 226 229 235 236 236 238 242 245 247 247 247 248 250 255 262 265 269 277 284 290 294 296 300 303 304 311 324 331 331 331 330 330 333 336 338 341 347 351 352 354 357 358 360 5 9 9 5 3 3 8 11
216 216 215 213 212 211 213 214 215 217 217 216 217 218 218 222 225 223 223 229 233 230 226 227 232 236 237 237 240 245 250 249 244 240 241 247 253 257 260 266 274 279 285 290 292 297 301 301 310 325 330 328 328 328 327 331 339 341 340 343 350 353 354 357 359 1 5 10 10 9 8 6 9 15
216 218 218 216 213 212 214 217 219 219 218 217 218 218 217 220 222 221 221 228 230 227 227 232 235 237 238 240 242 246 249 246 241 240 241 243 249 253 256 262 268 273 279 283 286 292 296 295 302 317 323 324 329 333 334 335 340 342 340 340 346 352 356 358 360 2 5 9 9 9 10 9 7 14
213 215 217 217 214 213 214 217 219 221 219 217 217 218 219 221 222 222 222 224 227 230 234 237 237 237 239 240 241 243 244 241 242 246 247 246 247 249 252 257 263 267 273 276 280 286 290 287 294 311 324 330 332 335 337 335 335 341 344 342 344 350 355 359 2 3 3 4 7 9 12 12 10 14
213 215 217 218 218 217 216 218 220 220 218 216 216 218 221 222 221 222 222 220 226 235 239 238 235 236 238 237 236 238 240 242 245 248 246 243 245 248 254 259 261 261 266 271 274 279 283 288 299 314 327 330 327 328 332 335 335 339 342 344 349 354 354 356 0 2 359 359 5 9 12 14 16 17
215 217 219 220 222 221 217 216 220 220 219 220 220 220 223 224 223 224 223 221 227 236 239 235 232 233 234 232 231 234 239 245 250 252 248 242 240 242 249 255 256 256 261 267 271 275 278 283 296 310 320 323 323 324 328 331 334 336 336 344 354 359 356 353 358 0 355 354 1 8 12 15 19 21
218 220 222 225 230 230 223 220 226 227 225 223 221 220 223 226 227 228 229 229 233 238 239 233 229 229 229 227 228 232 237 241 247 251 251 245 240 240 245 247 249 252 258 263 267 272 275 280 289 300 311 317 319 320 321 324 330 333 333 339 349 354 354 355 360 3 355 351 357 4 9 13 18 21
219 222 225 229 235 236 230 225 228 228 222 220 222 223 227 230 232 233 235 236 236 238 238 233 228 227 225 225 227 232 237 240 245 251 250 241 237 241 246 246 245 248 254 258 262 267 273 281 288 295 305 311 314 315 315 317 324 328 330 335 342 347 351 355 0 6 2 352 355 4 8 10 14 18